Location: Moscow
(55.7500°N, 37.5830°E)
Time: 20:00:36
(UTC+03:00)

Envisat - Visible Passes

Search period start: 25 February 2021 00:00
Search period end: 07 March 2021 00:00
Orbit: 764 x 766 km, 98.1° (Epoch: 25 February)

Date Brightness Start Highest point End Pass type
(mag) Time Alt. Az. Time Alt. Az. Time Alt. Az.
25 Feb 5.7 05:01:52 10° NE 05:05:32 19° E 05:09:09 10° SE visible
25 Feb 3.0 06:40:06 10° NNE 06:45:14 85° WNW 06:50:19 10° SSW visible
26 Feb 6.4 04:27:46 10° ENE 04:28:05 10° E 04:28:25 10° E visible
26 Feb 3.9 06:03:19 10° NNE 06:08:19 53° E 06:13:18 10° S visible
26 Feb 6.6 19:09:04 10° W 19:10:40 11° W 19:12:16 10° WNW visible
27 Feb 5.1 05:26:48 10° NNE 05:31:14 29° E 05:35:38 10° SSE visible
28 Feb 6.0 04:50:48 10° NE 04:53:56 16° E 04:57:04 10° ESE visible
28 Feb 3.2 06:28:40 10° NNE 06:33:48 82° ESE 06:38:53 10° SSW visible
01 Mar 4.3 05:51:57 10° NNE 05:56:50 44° E 06:01:41 10° S visible
01 Mar 6.3 18:56:27 10° WSW 18:59:02 14° W 19:01:39 10° NW visible
02 Mar 5.4 05:15:32 10° NE 05:19:41 25° E 05:23:49 10° SE visible
03 Mar 6.1 04:39:53 10° NE 04:42:20 13° E 04:44:46 10° ESE visible
03 Mar 3.4 06:17:15 10° NNE 06:22:21 68° ESE 06:27:25 10° S visible
04 Mar 4.7 05:40:36 10° NNE 05:45:20 37° E 05:50:02 10° SSE visible
04 Mar 6.2 18:44:12 10° SW 18:47:26 17° W 18:50:41 10° NW visible
05 Mar 5.7 05:04:20 10° NE 05:08:07 21° E 05:11:53 10° SE visible
06 Mar 6.3 04:29:25 10° ENE 04:30:42 11° E 04:31:59 10° E visible
06 Mar 3.8 06:05:51 10° NNE 06:10:53 57° E 06:15:53 10° S visible
06 Mar 6.8 19:12:15 10° W 19:13:16 11° W 19:14:18 10° WNW visible
